1496253601.14,61270,19.75,74224.3,4.51,0.13,-0.41,0,*55
1496253602.33,61271,19.75,74220.5,4.51,0.09,-0.03,0,*59
1496253603.54,61272,19.75,74222.8,4.51,0.21,0.43,0,*79
1496253604.76,61273,19.75,74222.8,4.53,0.59,0.83,0,*79
1496253606.0,61274,19.75,74224.0,4.55,0.91,0.95,0,*7B
1496253607.2,61275,19.75,74222.8,4.49,1.05,0.95,0,*4B
1496253608.45,61276,19.75,74222.5,4.51,1.21,0.67,0,*4A
1496253609.65,61277,19.75,74220.3,4.53,1.05,0.21,0,*4D
1496253610.87,61278,19.75,74226.8,4.51,0.97,0.13,0,*7B
1496253612.08,61279,19.75,74220.5,4.51,0.95,0.09,0,*43
1496253613.29,61280,19.75,74220.0,4.51,0.97,-0.15,0,*57
1496253614.49,61281,19.75,74226.5,4.53,0.95,-0.49,0,*5F
1496253615.7,61282,19.75,74224.0,4.53,0.83,-0.73,0,*52
1496253616.9,61283,19.75,74226.8,4.53,0.71,-1.17,0,*6D
1496253618.12,61284,19.75,74226.0,4.53,0.67,-1.87,0,*64
1496253619.29,61285,19.75,74226.0,4.53,0.43,-2.79,0,*61
1496253620.5,61286,19.75,74230.8,4.53,0.25,-3.91,0,*65
1496253621.73,61287,19.75,74228.8,4.53,-0.27,-5.85,0,*48
1496253622.98,61288,19.75,74234.8,4.53,-1.05,-8.11,0,*76
1496253624.2,61289,19.75,74232.3,4.53,-2.91,-11.51,0,*45
1496253625.43,61290,19.75,74236.3,4.53,-4.69,-11.85,0,*45
1496253626.68,61291,19.75,74232.0,4.53,-5.73,-11.93,0,*49
1496253627.94,61292,19.75,74236.3,4.51,-6.27,-14.79,0,*4B
1496253629.14,61293,19.75,74234.5,4.53,-8.41,-18.69,0,*4B
1496253630.39,61294,19.75,74236.5,4.51,-11.55,-19.99,0,*7D
1496253631.67,61295,19.75,74236.8,4.51,-13.83,-20.35,0,*79
1496253632.89,61296,19.75,74240.3,4.51,-15.53,-21.13,0,*74
1496253634.14,61297,19.75,74238.8,4.49,-17.03,-21.33,0,*79
1496253635.38,61298,19.75,74238.5,4.49,-19.51,-25.55,0,*7B
1496253636.64,61299,19.75,74240.8,4.49,-21.53,-23.19,0,*7D
1496253637.84,61300,19.75,74238.0,4.49,-19.95,-21.63,0,*72
1496253639.09,61301,19.75,74238.8,4.47,-20.09,-21.53,0,*71
1496253640.34,61302,19.75,74238.8,4.45,-21.03,-22.17,0,*78
1496253641.57,61303,19.75,74240.3,4.45,-21.33,-22.53,0,*7A
1496253642.8,61304,19.75,74238.0,4.45,-21.73,-24.21,0,*7A
1496253644.03,61305,19.75,74238.3,4.45,-23.09,-24.21,0,*74
1496253645.26,61306,19.75,74238.8,4.45,-23.59,-22.47,0,*74
1496253646.48,61307,19.75,74240.8,4.45,-22.67,-21.33,0,*79
1496253647.73,61308,19.75,74238.0,4.43,-22.03,-21.53,0,*74
1496253648.92,61309,19.75,74238.5,4.41,-22.07,-21.43,0,*72
1496253650.12,61310,19.75,74240.5,4.41,-22.53,-20.05,0,*78
1496253651.32,61311,19.75,74236.3,4.41,-21.77,-18.65,0,*71
1496253652.53,61312,19.75,74242.5,4.41,-20.19,-18.99,0,*78
1496253653.76,61313,19.75,74240.5,4.41,-19.23,-21.13,0,*72
1496253654.99,61314,19.75,74238.0,4.35,-18.73,-23.09,0,*7B
1496253656.24,61315,19.75,74232.3,4.35,-20.05,-25.55,0,*7F
1496253657.48,61316,19.75,74234.5,4.35,-22.73,-26.87,0,*73
1496253658.68,61317,19.75,74234.8,4.33,-25.19,-25.87,0,*7C
1496253659.88,61318,19.75,74234.5,4.33,-25.61,-24.57,0,*70
1496253661.13,61319,19.75,74234.8,4.31,-26.07,-22.31,0,*76
1496253662.42,61320,19.75,74234.8,4.31,-24.21,-18.93,0,*7B
1496253663.64,61321,19.75,74232.8,4.33,-22.03,-17.25,0,*7C
1496253664.87,61322,19.75,74234.3,4.31,-20.63,-15.67,0,*7D
1496253666.09,61323,19.75,74230.0,4.31,-16.93,-15.95,0,*7B
1496253667.32,61324,19.75,74232.8,4.29,-16.97,-19.85,0,*7C
1496253668.52,61325,19.75,74234.5,4.29,-19.75,-23.79,0,*74
1496253669.72,61326,19.75,74224.3,4.29,-22.37,-24.31,0,*72
1496253670.95,61327,19.75,74230.8,4.29,-22.41,-23.33,0,*77
1496253672.2,61328,19.75,74228.5,4.29,-21.23,-24.25,0,*7F
1496253673.44,61329,19.75,74228.5,4.29,-22.53,-26.77,0,*7F
1496253674.64,61330,19.75,74226.8,4.27,-23.89,-27.03,0,*7D
1496253675.86,61331,19.75,74236.3,4.27,-25.71,-27.67,0,*7F
1496253677.08,61332,19.75,74234.3,4.27,-27.35,-27.03,0,*7C
1496253678.33,61333,19.75,74236.3,4.25,-27.77,-25.29,0,*73
1496253679.55,61334,19.75,74238.8,4.23,-27.39,-23.59,0,*79
1496253680.8,61335,19.75,74232.8,4.23,-26.33,-22.31,0,*7C
1496253682.05,61336,19.75,74230.5,4.23,-24.87,-21.53,0,*75
1496253683.29,61337,19.75,74232.3,4.21,-23.75,-20.89,0,*7A
1496253684.52,61338,19.75,74230.0,4.19,-23.03,-20.05,0,*7B
1496253685.76,61339,19.75,74230.3,4.21,-22.11,-19.81,0,*75
1496253686.98,61340,19.75,74228.5,4.23,-21.09,-20.15,0,*74
1496253688.21,61341,19.75,74224.3,4.19,-20.35,-21.57,0,*75
1496253689.46,61342,19.75,74226.0,4.21,-20.25,-23.29,0,*77
1496253690.66,61343,19.75,74226.5,4.19,-21.13,-25.09,0,*7D
1496253691.94,61344,19.75,74228.8,4.17,-22.21,-25.81,0,*76
1496253693.16,61345,19.75,74226.5,4.19,-23.85,-25.91,0,*77
1496253694.4,61346,19.75,74224.8,4.13,-25.19,-25.45,0,*74
1496253695.63,61347,19.75,74226.3,4.13,-25.49,-24.47,0,*73
1496253696.87,61348,19.75,74228.0,4.13,-25.45,-23.79,0,*7A
1496253698.09,61349,19.75,74230.5,4.13,-25.35,-23.09,0,*7B
1496253699.34,61350,19.75,74230.8,4.13,-24.67,-22.67,0,*7C
1496253700.56,61351,19.75,74226.5,4.13,-23.39,-22.93,0,*7A
1496253701.81,61352,19.75,74224.3,4.13,-22.87,-24.87,0,*7E
1496253703.04,61353,19.75,74230.0,4.11,-23.53,-27.07,0,*7E
1496253704.28,61354,19.75,74234.0,4.11,-24.71,-28.37,0,*72
1496253705.52,61355,19.75,74232.8,4.09,-25.87,-28.75,0,*74
1496253706.78,61356,19.75,74232.0,4.09,-27.07,-28.25,0,*78
1496253708.04,61357,19.75,74232.0,4.09,-26.49,-27.39,0,*70
1496253709.23,61358,19.75,74228.0,4.07,-27.55,-29.07,0,*7E
1496253710.48,61359,19.75,74230.3,4.07,-28.59,-29.13,0,*79
1496253711.73,61360,19.75,74234.3,4.05,-29.35,-29.07,0,*7F
1496253712.98,61361,19.75,74232.0,4.05,-29.83,-28.43,0,*72
1496253714.24,61362,19.75,74234.8,4.05,-29.13,-27.89,0,*71
1496253715.51,61363,19.75,74230.5,4.05,-28.09,-28.43,0,*73
1496253716.77,61364,19.75,74228.5,4.05,-28.79,-30.11,0,*7D
1496253717.97,61365,19.75,74226.5,4.03,-29.83,-30.33,0,*7E
1496253719.25,61366,19.75,74222.3,4.01,-30.05,-29.89,0,*70
1496253720.5,61367,19.75,74220.3,4.01,-30.23,-29.89,0,*75
1496253721.78,61368,19.75,74218.0,4.01,-30.39,-29.89,0,*71
1496253723.0,61369,19.75,74216.0,4.03,-30.27,-29.73,0,*78
1496253724.24,61370,19.75,74216.0,3.99,-29.89,-29.57,0,*7E
1496253725.5,61371,19.75,74220.5,3.97,-29.83,-29.51,0,*7D
1496253726.72,61372,19.75,74224.5,3.97,-29.67,-29.07,0,*77
1496253727.98,61373,19.75,74224.5,3.97,-29.67,-28.63,0,*75
1496253729.25,61374,19.75,74222.8,3.97,-29.83,-27.61,0,*75
1496253730.47,61375,19.75,74220.0,3.95,-29.83,-26.45,0,*71
1496253731.74,61376,19.75,74222.5,3.95,-29.29,-24.71,0,*77
1496253732.99,61377,19.75,74220.5,3.95,-28.63,-22.63,0,*7C
1496253734.21,61378,19.75,74218.0,3.93,-27.23,-19.71,0,*75
1496253735.43,61379,19.75,74214.3,3.93,-26.45,-17.11,0,*7D
1496253736.63,61380,19.75,74216.5,3.93,-24.93,-13.83,0,*7D
1496253737.86,61381,19.75,74220.0,3.93,-21.17,-11.55,0,*7C
1496253739.11,61382,19.75,74214.3,3.93,-17.93,-10.41,0,*72
1496253740.3,61383,19.75,74214.3,3.93,-17.31,-10.27,0,*7B
1496253741.57,61384,19.75,74212.8,3.95,-17.55,-9.15,0,*41
1496253742.81,61385,19.75,74212.8,3.89,-17.55,-7.91,0,*4F
1496253744.03,61386,19.75,74212.0,3.89,-16.17,-6.39,0,*48
1496253745.26,61387,19.75,74214.8,3.89,-14.29,-5.23,0,*4E
1496253746.48,61388,19.75,74216.3,3.93,-12.21,-4.93,0,*4E
1496253747.71,61389,19.75,74216.5,3.95,-9.97,-5.15,0,*71
1496253748.92,61390,19.75,74212.0,3.89,-8.81,-5.39,0,*7C
1496253750.14,61391,19.75,74214.3,3.89,-8.29,-5.61,0,*72
1496253751.35,61392,19.75,74214.0,3.89,-7.99,-5.47,0,*71
1496253752.57,61393,19.75,74220.5,3.89,-7.87,-5.03,0,*7F
1496253753.78,61394,19.75,74222.3,3.93,-7.49,-4.81,0,*7A
1496253755.02,61395,19.75,74224.8,3.93,-7.27,-4.85,0,*77
1496253756.23,61396,19.75,74222.8,3.93,-6.89,-5.19,0,*75
1496253757.46,61397,19.75,74218.5,3.93,-6.63,-5.77,0,*78
1496253758.64,61398,19.75,74214.8,3.93,-6.55,-6.51,0,*75
1496253759.83,61399,19.75,74220.0,3.93,-6.43,-7.15,0,*72
1496253761.02,61400,19.75,74220.5,3.93,-6.35,-7.83,0,*7B
1496253762.22,61401,19.75,74216.8,3.93,-6.27,-9.19,0,*74
1496253763.46,61402,19.75,74222.8,3.93,-6.63,-11.55,0,*46
1496253764.64,61403,19.75,74218.5,3.93,-7.49,-13.93,0,*46
1496253765.83,61404,19.75,74220.5,3.93,-8.75,-15.99,0,*4D
1496253767.04,61405,19.75,74218.0,3.93,-10.89,-18.35,0,*7D
1496253768.3,61406,19.75,74218.3,3.95,-14.05,-19.37,0,*7B
1496253769.55,61407,19.75,74216.8,3.95,-17.17,-18.07,0,*78
1496253770.76,61408,19.75,74214.5,3.89,-19.13,-16.59,0,*75
1496253771.99,61409,19.75,74216.0,3.89,-19.17,-14.55,0,*7E
1496253773.25,61410,19.75,74222.0,3.89,-17.25,-12.75,0,*7D
1496253774.46,61411,19.75,74222.3,3.89,-14.23,-13.23,0,*7B
1496253775.68,61412,19.75,74226.5,3.89,-13.69,-14.75,0,*75
1496253776.92,61413,19.75,74222.3,3.89,-15.85,-15.49,0,*7E
1496253778.12,61414,19.75,74224.3,3.89,-16.59,-14.61,0,*70
1496253779.37,61415,19.75,74220.0,3.89,-15.89,-14.55,0,*78
1496253780.61,61416,19.75,74222.0,3.89,-15.01,-15.35,0,*7C
1496253781.86,61417,19.75,74222.0,3.89,-14.97,-17.21,0,*74
1496253783.09,61418,19.75,74218.8,3.87,-16.31,-18.83,0,*7C
1496253784.29,61419,19.75,74220.5,3.89,-18.45,-19.37,0,*70
1496253785.51,61420,19.75,74222.0,3.89,-20.29,-19.31,0,*7D
1496253786.77,61421,19.75,74222.3,3.87,-21.33,-18.59,0,*77
1496253788.0,61422,19.75,74224.5,3.89,-21.77,-17.55,0,*79
1496253789.2,61423,19.75,74226.5,3.89,-21.47,-16.03,0,*79
1496253790.42,61424,19.75,74226.8,3.87,-20.29,-15.25,0,*7E
1496253791.66,61425,19.75,74226.5,3.87,-18.99,-13.87,0,*71
1496253792.86,61426,19.75,74224.0,3.89,-17.35,-13.11,0,*7A
1496253794.13,61427,19.75,74224.0,3.87,-15.89,-12.15,0,*75
1496253795.38,61428,19.75,74226.3,3.87,-14.97,-10.31,0,*70
1496253796.6,61429,19.75,74218.5,3.87,-13.23,-8.45,0,*43
1496253797.86,61430,19.75,74216.3,3.87,-10.79,-7.65,0,*4A
1496253799.05,61431,19.75,74218.3,3.85,-9.05,-8.21,0,*75
1496253800.24,61432,19.75,74216.5,3.85,-8.37,-9.67,0,*75
1496253801.46,61433,19.75,74218.3,3.85,-8.63,-11.77,0,*4D
1496253802.7,61434,19.75,74218.5,3.85,-10.41,-13.87,0,*7E
1496253803.96,61435,19.75,74218.0,3.85,-11.93,-15.01,0,*79
1496253805.19,61436,19.75,74216.8,3.85,-13.51,-16.17,0,*72
1496253806.44,61437,19.75,74214.8,3.83,-14.89,-17.21,0,*73
1496253807.66,61438,19.75,74216.5,3.85,-16.69,-18.45,0,*7B
1496253808.91,61439,19.75,74222.0,3.87,-17.97,-18.07,0,*7E
1496253810.19,61440,19.75,74226.5,3.83,-17.97,-17.41,0,*79
1496253811.42,61441,19.75,74230.0,3.83,-16.79,-17.83,0,*77
1496253812.68,61442,19.75,74230.3,3.83,-16.51,-18.89,0,*7B
1496253813.88,61443,19.75,74224.5,3.85,-16.97,-19.51,0,*72
1496253815.13,61444,19.75,74224.3,3.85,-18.31,-19.81,0,*7A
1496253816.35,61445,19.75,74220.0,3.83,-19.95,-20.29,0,*7A
1496253817.6,61446,19.75,74222.5,3.83,-21.73,-21.03,0,*73
1496253818.8,61447,19.75,74220.5,3.85,-23.13,-21.09,0,*7A
1496253820.03,61448,19.75,74226.0,3.83,-23.43,-20.59,0,*72
1496253821.24,61449,19.75,74224.5,3.81,-23.13,-20.39,0,*72
1496253822.46,61450,19.75,74226.5,3.81,-22.87,-20.49,0,*71
1496253823.71,61451,19.75,74222.0,3.81,-23.23,-20.15,0,*76
1496253824.93,61452,19.75,74222.3,3.81,-23.13,-18.55,0,*79
1496253826.12,61453,19.75,74222.3,3.81,-22.87,-17.73,0,*7F
1496253827.4,61454,19.75,74222.3,3.79,-21.67,-17.41,0,*73
1496253828.63,61455,19.75,74220.8,3.81,-24.35,-18.35,0,*7B
1496253829.86,61456,19.75,74222.8,3.79,-24.57,-16.75,0,*71
1496253831.11,61457,19.75,74218.0,3.81,-23.53,-15.57,0,*77
1496253832.39,61458,19.75,74214.3,3.79,-24.67,-15.85,0,*70
1496253833.64,61459,19.75,74208.3,3.79,-25.71,-14.69,0,*74
1496253834.91,61460,19.75,74206.3,3.79,-26.13,-13.61,0,*76
1496253836.14,61461,19.75,74204.8,3.79,-26.49,-12.97,0,*70
1496253837.41,61462,19.75,74204.8,3.79,-27.19,-11.73,0,*7E
1496253838.64,61463,19.75,74208.5,3.79,-27.03,-10.01,0,*70
1496253839.88,61464,19.75,74210.3,3.79,-26.13,-8.29,0,*44
1496253841.1,61465,19.75,74210.8,3.77,-25.03,-6.81,0,*45
1496253842.32,61466,19.75,74210.3,3.77,-23.59,-4.73,0,*40
1496253843.56,61467,19.75,74212.5,3.75,-21.67,-3.19,0,*47
1496253844.75,61468,19.75,74218.0,3.77,-19.47,-1.79,0,*47
1496253845.97,61469,19.75,74222.8,3.77,-17.07,-0.81,0,*7A
1496253847.15,61470,19.75,74226.3,3.77,-14.29,-0.29,0,*7F
1496253848.41,61471,19.75,74218.3,3.75,-11.85,0.13,0,*5B
1496253849.63,61472,19.75,74218.8,3.77,-9.53,0.55,0,*6A
1496253850.84,61473,19.75,74216.5,3.77,-7.23,0.87,0,*6D
1496253852.09,61474,19.75,74214.0,3.75,-5.69,0.87,0,*64
1496253853.29,61475,19.75,74214.5,3.77,-4.37,1.13,0,*51
1496253854.5,61476,19.75,74216.3,3.77,-3.35,1.17,0,*53
1496253855.73,61477,19.75,74216.5,3.77,-2.59,1.37,0,*5B
1496253856.95,61478,19.75,74214.3,3.77,-1.91,1.51,0,*53
1496253858.16,61479,19.75,74216.5,3.77,-1.21,1.67,0,*5C
1496253859.39,61480,19.75,74216.0,3.77,-1.05,1.67,0,*5C
1496253860.6,61481,19.75,74216.3,3.77,-0.81,1.85,0,*6C
1496253861.8,61482,19.75,74216.8,3.77,-0.53,2.01,0,*6F
1496253863.02,61483,19.75,74208.5,3.79,-0.33,2.09,0,*6E
1496253864.25,61484,19.75,74208.3,3.79,-0.03,2.25,0,*54
1496253865.49,61485,19.75,74208.5,3.79,0.21,2.25,0,*48
1496253866.65,61486,19.75,74210.8,3.81,0.43,2.27,0,*4A
1496253867.84,61487,19.75,74210.8,3.81,0.55,2.27,0,*4C
1496253869.06,61488,19.75,74216.3,3.79,0.79,2.35,0,*49
1496253870.29,61489,19.75,74216.3,3.79,0.91,2.35,0,*4E
1496253871.49,61490,19.75,74216.3,3.81,0.97,2.39,0,*4B
1496253872.75,61491,19.75,74216.5,3.79,1.17,2.43,0,*79
1496253874.01,61492,19.75,74216.3,3.79,1.37,2.47,0,*7C
1496253875.24,61493,19.75,74214.5,3.81,1.55,2.51,0,*79
1496253876.47,61494,19.75,74214.0,3.81,1.71,2.43,0,*7B
1496253877.7,61495,19.75,74216.0,3.81,1.89,2.51,0,*7E
1496253878.93,61496,19.75,74218.3,3.81,2.13,2.43,0,*7E
1496253880.13,61497,19.75,74216.5,3.81,2.27,2.55,0,*7F
1496253881.33,61498,19.75,74218.0,3.81,2.27,2.51,0,*74
1496253882.57,61499,19.75,74220.8,3.81,2.39,2.51,0,*7A
1496253883.8,61500,19.75,74220.3,3.81,2.39,2.51,0,*7B
1496253885.03,61501,19.75,74216.3,3.79,2.27,2.39,0,*7C
1496253886.23,61502,19.75,74218.0,3.81,2.31,2.43,0,*72
1496253887.46,61503,19.75,74216.8,3.81,2.39,2.51,0,*78
1496253888.69,61504,19.75,74218.0,3.81,2.39,2.55,0,*7B
1496253889.91,61505,19.75,74218.3,3.83,2.35,2.59,0,*78
1496253891.12,61506,19.75,74216.3,3.81,2.39,2.61,0,*7E
1496253892.37,61507,19.75,74212.0,3.83,2.43,2.69,0,*78
1496253893.59,61508,19.75,74212.8,3.83,2.55,2.91,0,*77
1496253894.84,61509,19.75,74214.5,3.83,2.69,2.89,0,*70
1496253896.06,61510,19.75,74212.8,3.83,2.89,2.99,0,*77
1496253897.26,61511,19.75,74216.8,3.85,2.99,3.03,0,*73
1496253898.49,61512,19.75,74212.5,3.83,2.99,3.03,0,*76
1496253899.71,61513,19.75,74214.8,3.83,2.99,3.03,0,*77
1496253900.97,61514,19.75,74212.5,3.83,3.03,3.03,0,*72
1496253902.22,61515,19.75,74212.8,3.83,3.11,3.11,0,*73
1496253903.42,61516,19.75,74214.5,3.83,2.99,2.99,0,*70
1496253904.59,61517,19.75,74214.3,3.85,2.99,2.91,0,*7F
1496253905.79,61518,19.75,74208.8,3.83,2.99,2.99,0,*7E
1496253907.04,61519,19.75,74218.0,3.83,3.03,3.03,0,*7F
1496253908.27,61520,19.75,74218.0,3.85,3.11,3.11,0,*73
1496253909.5,61521,19.75,74214.3,3.85,3.11,3.11,0,*72
1496253910.73,61522,19.75,74214.3,3.85,3.03,3.11,0,*72
1496253911.95,61523,19.75,74214.5,3.85,3.11,3.19,0,*78
1496253913.17,61524,19.75,74212.8,3.85,3.11,3.19,0,*7F
1496253914.43,61525,19.75,74214.5,3.83,3.11,3.15,0,*74
1496253915.66,61526,19.75,74212.0,3.85,3.11,3.15,0,*71
1496253916.89,61527,19.75,74214.0,3.85,3.11,3.11,0,*74
1496253918.13,61528,19.75,74210.3,3.85,3.15,3.15,0,*7B
1496253919.36,61529,19.75,74212.5,3.85,3.15,3.11,0,*7E
1496253920.59,61530,19.75,74210.5,3.85,3.15,3.19,0,*7E
1496253921.84,61531,19.75,74212.5,3.83,3.15,3.15,0,*75
1496253923.07,61532,19.75,74212.5,3.85,3.15,3.19,0,*7C
1496253924.31,61533,19.75,74216.3,3.85,3.15,3.15,0,*71
1496253925.53,61534,19.75,74218.0,3.85,3.15,3.19,0,*7A
1496253926.78,61535,19.75,74214.8,3.87,3.23,3.23,0,*75
1496253928.03,61536,19.75,74216.0,3.87,3.23,3.19,0,*7F
1496253929.27,61537,19.75,74218.5,3.87,3.23,3.19,0,*7E
1496253930.52,61538,19.75,74222.8,3.87,3.19,3.07,0,*77
1496253931.77,61539,19.75,74218.0,3.87,3.15,2.85,0,*71
1496253932.99,61540,19.75,74220.8,3.89,3.15,2.61,0,*7B
1496253934.22,61541,19.75,74220.8,3.89,3.03,2.25,0,*7D
1496253935.45,61542,19.75,74222.5,3.89,2.81,2.13,0,*70
1496253936.67,61543,19.75,74222.0,3.87,2.61,2.09,0,*7A
1496253937.92,61544,19.75,74214.5,3.87,2.51,2.09,0,*7E
1496253939.14,61545,19.75,74216.3,3.87,2.69,2.31,0,*7F
1496253940.36,61546,19.75,74218.0,3.89,2.69,2.47,0,*73
1496253941.59,61547,19.75,74210.3,3.87,2.61,2.25,0,*70
1496253942.81,61548,19.75,74212.5,3.89,2.73,2.09,0,*7C
1496253944.04,61549,19.75,74214.5,3.89,2.81,2.09,0,*70
1496253945.27,61550,19.75,74212.3,3.89,2.81,1.85,0,*7F
1496253946.5,61551,19.75,74210.0,3.89,2.51,1.13,0,*7C
1496253947.68,61552,19.75,74208.3,3.89,2.35,-0.11,0,*63
1496253948.9,61553,19.75,74208.3,3.89,1.79,-1.39,0,*52
1496253950.13,61554,19.75,74208.5,3.87,1.29,-1.55,0,*54
1496253951.34,61555,19.75,74206.0,3.87,1.05,-1.71,0,*5D
1496253952.57,61556,19.75,74210.0,3.89,0.63,-1.83,0,*6C
1496253953.76,61557,19.75,74212.3,3.89,0.17,-1.55,0,*65
1496253954.96,61558,19.75,74208.8,3.89,0.33,-0.69,0,*52
1496253956.16,61559,19.75,74204.3,3.89,0.55,-0.45,0,*5D
1496253957.32,61560,19.75,74208.0,3.89,0.01,-1.33,0,*56
1496253958.54,61561,19.75,74206.3,3.89,-0.81,-1.43,0,*45
1496253959.78,61562,19.75,74212.0,3.89,-2.03,-2.55,0,*7A
1496253961.02,61563,19.75,74210.8,3.89,-2.67,-2.07,0,*7E
1496253962.24,61564,19.75,74212.3,3.89,-3.43,-1.33,0,*7A
1496253963.43,61565,19.75,74214.5,3.89,-3.03,-0.11,0,*4E
1496253964.62,61566,19.75,74212.0,3.89,-1.55,0.95,0,*6D
1496253965.82,61567,19.75,74210.3,3.89,-0.33,1.59,0,*6C
1496253967.03,61568,19.75,74214.5,3.87,0.43,1.85,0,*46
1496253968.23,61569,19.75,74216.5,3.89,1.01,2.01,0,*71
1496253969.49,61570,19.75,74218.0,3.87,1.29,1.97,0,*71
1496253970.71,61571,19.75,74220.0,3.89,1.47,1.85,0,*75
1496253971.91,61572,19.75,74212.5,3.89,1.59,1.75,0,*76
1496253973.14,61573,19.75,74212.5,3.89,1.51,1.59,0,*71
1496253974.34,61574,19.75,74212.8,3.89,1.41,1.37,0,*7F
1496253975.51,61575,19.75,74214.3,3.89,1.41,1.05,0,*7F
1496253976.72,61576,19.75,74212.8,3.89,1.05,0.75,0,*4A
1496253977.91,61577,19.75,74214.3,3.89,1.01,0.41,0,*48
1496253979.11,61578,19.75,74208.3,3.87,1.05,0.05,0,*7D
1496253980.31,61579,19.75,74202.0,3.89,1.01,-0.97,0,*60
1496253981.52,61580,19.75,74200.8,3.89,0.83,-2.43,0,*66
1496253982.77,61581,19.75,74208.5,3.87,0.55,-4.69,0,*6C
1496253983.99,61582,19.75,74200.8,3.87,-0.93,-6.39,0,*4F
1496253985.23,61583,19.75,74202.0,3.87,-2.47,-6.73,0,*7B
1496253986.47,61584,19.75,74206.3,3.87,-3.55,-6.31,0,*78
1496253987.68,61585,19.75,74206.8,3.85,-3.51,-5.39,0,*74
1496253988.93,61586,19.75,74204.5,3.87,-3.95,-5.11,0,*77
1496253990.19,61587,19.75,74200.8,3.87,-4.73,-5.15,0,*7D
1496253991.4,61588,19.75,74206.8,3.85,-5.15,-4.37,0,*70
1496253992.62,61589,19.75,74206.5,3.85,-5.07,-3.75,0,*73
1496253993.85,61590,19.75,74202.0,3.87,-4.57,-3.43,0,*78
1496253995.08,61591,19.75,74210.5,3.87,-4.13,-3.47,0,*7D
1496253996.28,61592,19.75,74208.0,3.87,-4.37,-3.79,0,*75
1496253997.53,61593,19.75,74210.3,3.87,-4.89,-3.71,0,*79
1496253998.76,61594,19.75,74208.8,3.87,-5.11,-3.31,0,*7A
1496254000.0,61595,19.75,74216.3,3.87,-4.13,-2.71,0,*7D
1496254001.22,61596,19.75,74210.3,3.89,-4.01,-2.79,0,*7B
1496254002.43,61597,19.75,74210.0,3.87,-3.91,-2.79,0,*7A
1496254003.64,61598,19.75,74206.3,3.87,-4.09,-3.07,0,*7B
1496254004.83,61599,19.75,74210.5,3.89,-4.13,-3.23,0,*79
1496254006.06,61600,19.75,74212.3,3.87,-4.25,-3.71,0,*76
1496254007.26,61601,19.75,74210.8,3.87,-4.99,-4.57,0,*73
1496254008.48,61602,19.75,74220.8,3.87,-5.51,-4.49,0,*7A
1496254009.71,61603,19.75,74224.3,3.87,-5.65,-4.49,0,*7C
1496254010.96,61604,19.75,74228.8,3.87,-6.59,-5.03,0,*78
1496254012.19,61605,19.75,74222.5,3.87,-8.17,-5.93,0,*74
1496254013.43,61606,19.75,74222.3,3.87,-10.09,-6.93,0,*42
1496254014.67,61607,19.75,74222.8,3.87,-12.03,-7.77,0,*40
1496254015.91,61608,19.75,74216.3,3.85,-14.51,-8.03,0,*40
1496254017.13,61609,19.75,74218.0,3.85,-15.63,-7.43,0,*4A
1496254018.35,61610,19.75,74214.0,3.85,-15.35,-6.43,0,*40
1496254019.57,61611,19.75,74220.0,3.83,-14.61,-6.51,0,*44
1496254020.79,61612,19.75,74216.3,3.85,-14.05,-6.89,0,*46
1496254022.01,61613,19.75,74216.8,3.85,-14.79,-7.23,0,*4D
1496254023.26,61614,19.75,74216.3,3.85,-16.09,-7.27,0,*4B
1496254024.46,61615,19.75,74216.8,3.85,-16.79,-7.11,0,*48
1496254025.67,61616,19.75,74218.0,3.85,-16.27,-6.85,0,*4C
1496254026.89,61617,19.75,74214.0,3.83,-15.49,-6.77,0,*4D
1496254028.12,61618,19.75,74214.5,3.83,-15.21,-7.11,0,*4D
1496254029.34,61619,19.75,74212.5,3.83,-15.67,-7.11,0,*4E
1496254030.56,61620,19.75,74214.0,3.83,-15.53,-6.77,0,*42
1496254031.78,61621,19.75,74218.0,3.83,-15.15,-6.31,0,*43
1496254033.03,61622,19.75,74214.8,3.83,-14.51,-5.43,0,*47
1496254034.25,61623,19.75,74212.0,3.79,-13.15,-4.21,0,*41
1496254035.43,61624,19.75,74214.5,3.81,-10.53,-3.75,0,*46
1496254036.64,61625,19.75,74214.3,3.81,-8.25,-3.63,0,*78
1496254037.89,61626,19.75,74214.0,3.83,-7.77,-3.71,0,*72
1496254039.15,61627,19.75,74212.0,3.79,-7.65,-3.59,0,*7F
1496254040.37,61628,19.75,74210.3,3.81,-7.11,-3.59,0,*74
1496254041.58,61629,19.75,74206.0,3.81,-6.69,-4.01,0,*71
1496254042.77,61630,19.75,74208.0,3.81,-6.13,-4.65,0,*76
1496254043.98,61631,19.75,74202.5,3.81,-6.23,-5.35,0,*70
1496254045.17,61632,19.75,74206.8,3.81,-6.51,-6.09,0,*7A
1496254046.38,61633,19.75,74210.0,3.81,-7.15,-7.31,0,*70
1496254047.57,61634,19.75,74210.3,3.81,-8.55,-8.29,0,*7A
1496254048.75,61635,19.75,74214.3,3.81,-9.75,-8.67,0,*72
1496254049.95,61636,19.75,74216.5,3.81,-10.97,-8.93,0,*4E
1496254051.16,61637,19.75,74218.0,3.81,-11.97,-9.23,0,*44
1496254052.38,61638,19.75,74212.0,3.81,-12.71,-9.19,0,*49
1496254053.59,61639,19.75,74212.5,3.81,-12.83,-9.23,0,*4C
1496254054.8,61640,19.75,74214.3,3.81,-12.83,-9.23,0,*42
1496254056.02,61641,19.75,74218.0,3.81,-12.89,-9.11,0,*48
1496254057.26,61642,19.75,74212.3,3.79,-13.29,-9.05,0,*42
1496254058.46,61643,19.75,74216.8,3.81,-13.55,-8.93,0,*41
1496254059.65,61644,19.75,74216.0,3.81,-14.11,-8.93,0,*41
1496254060.84,61645,19.75,74216.5,3.81,-14.65,-9.19,0,*40
1496254062.1,61646,19.75,74214.0,3.79,-15.01,-9.37,0,*4B
1496254063.29,61647,19.75,74222.3,3.81,-15.07,-9.19,0,*47
1496254064.48,61648,19.75,74220.0,3.81,-15.25,-9.19,0,*48
1496254065.7,61649,19.75,74218.5,3.81,-15.39,-9.05,0,*49
1496254066.96,61650,19.75,74218.3,3.79,-15.57,-9.11,0,*4B
1496254068.21,61651,19.75,74216.3,3.79,-15.85,-9.05,0,*40
1496254069.45,61652,19.75,74220.0,3.79,-15.89,-9.05,0,*4F
1496254070.66,61653,19.75,74222.5,3.79,-15.99,-9.05,0,*4F
1496254071.91,61654,19.75,74220.8,3.79,-15.89,-9.05,0,*49
1496254073.13,61655,19.75,74220.8,3.79,-15.75,-9.05,0,*4B
1496254074.37,61656,19.75,74216.0,3.79,-15.57,-9.05,0,*48
1496254075.61,61657,19.75,74224.3,3.79,-15.43,-9.27,0,*4C
1496254076.85,61658,19.75,74218.8,3.75,-15.21,-9.67,0,*4F
1496254078.06,61659,19.75,74218.0,3.77,-15.01,-10.09,0,*7E
1496254079.26,61660,19.75,74216.8,3.77,-15.11,-10.49,0,*71
1496254080.47,61661,19.75,74210.5,3.77,-14.97,-11.19,0,*7B
1496254081.7,61662,19.75,74206.8,3.77,-14.83,-12.03,0,*75
1496254082.92,61663,19.75,74202.5,3.77,-15.25,-13.01,0,*7A
1496254084.19,61664,19.75,74204.0,3.75,-15.35,-13.87,0,*70
1496254085.43,61665,19.75,74206.0,3.75,-15.49,-14.75,0,*70
1496254086.66,61666,19.75,74204.5,3.75,-15.49,-15.49,0,*7D
1496254087.9,61667,19.75,74210.8,3.75,-15.53,-16.31,0,*7B
1496254089.15,61668,19.75,74210.0,3.75,-15.53,-17.21,0,*74
1496254090.4,61669,19.75,74210.0,3.75,-15.75,-18.01,0,*7C
1496254091.64,61670,19.75,74208.8,3.75,-15.81,-19.03,0,*7C
1496254092.88,61671,19.75,74214.0,3.73,-16.09,-19.95,0,*77
1496254094.1,61672,19.75,74218.0,3.73,-16.31,-20.93,0,*73
1496254095.35,61673,19.75,74224.3,3.73,-16.69,-21.97,0,*7A
1496254096.61,61674,19.75,74220.0,3.73,-17.41,-23.23,0,*7B
1496254097.87,61675,19.75,74220.3,3.73,-18.01,-24.21,0,*74
1496254099.12,61676,19.75,74218.8,3.71,-18.93,-25.39,0,*76
1496254100.41,61677,19.75,74220.0,3.71,-19.57,-26.29,0,*7C
1496254101.68,61678,19.75,74220.8,3.71,-20.49,-26.97,0,*73
1496254102.94,61679,19.75,74220.8,3.71,-21.27,-27.67,0,*75
1496254104.22,61680,19.75,74220.0,3.71,-22.21,-28.25,0,*7F
1496254105.47,61681,19.75,74220.0,3.71,-22.97,-28.59,0,*78
1496254106.72,61682,19.75,74220.8,3.65,-23.85,-29.17,0,*77
1496254108.0,61683,19.75,74218.5,3.67,-24.67,-29.39,0,*73
1496254109.2,61684,19.75,74218.8,3.65,-25.35,-29.67,0,*7B
1496254110.46,61685,19.75,74214.5,3.67,-25.97,-29.83,0,*7A
1496254111.71,61686,19.75,74226.0,3.65,-26.55,-29.89,0,*7C
1496254112.92,61687,19.75,74224.8,3.65,-27.29,-29.95,0,*7A